星链-30245 (STARLINK-30245 )

导读

STARLINK-30245是美国SpaceX公司星链星座的一颗低轨互联网卫星,于2023年8月11日由猎鹰9号运载火箭发射入轨。星链星座旨在为全球提供宽带互联网服务,该卫星采用平板设计,搭载霍尔推进器,具备自主避撞能力,设计寿命约5-7年,退役后会坠入大气层烧毁,目前处于在轨运行状态,属于星链大规模星座部署的一部分。

Basic Information
目录编号:
57612
目录名称:
STARLINK-30245
国际标识:
2023-119L
轨道中心:
EARTH
卫星名称:
星链-30245
卫星全名:
星链-30245 (STARLINK-30245 )
卫星状态:
在轨 (已飞行1120 天)
发射日期:
2023-08-11 UTC
国别 :
美国 (US)
星等 :
--
Orbit Information
数据来源 国际轨道数据
星历时间: 2026-09-04T11:34:51+0800
11小时前
查看轨道信息
半长轴: 6861.174km
偏心率: 0.00008
轨道倾角: 43.000°
近地点辐角 309.969°
升交点赤经 153.374°
平近点角 50.110°
近地点: 482.488km
远地点: 483.586km
周期: 94.266分钟
每日圈数: 15.275843
Detailed Information
固有亮度:
5
最大亮度:
0.3
卫星平台:
Starlink v2.0 mini
覆盖范围:
全球
运营商:
太空探索技术公司
运营商所在国:
美国
制造商(研发单位):
太空探索技术公司
制造商所在国:
美国
使用方式:
暂无
Satellite Introduction
星链(Starlink)计划是由太空探索技术公司(SpaceX)提出的一个巨型低轨卫星互联网星座项目,计划在2019年至2024年间在太空搭建由约1.2万颗卫星组成的“星链”网络,其中1584颗将部署在地球上空550千米处的近地轨道,并从2020年开始工作。该卫星仍在工作。
2D Orbit Map
3D Orbit Map
Orbit Altitude Analysis Chart
Orbit Inclination Analysis Chart
Orbit Comprehensive Analysis Chart
View Comprehensive Chart
Conjunction Data List
Event ID Objects TCA Miss Dist (km) Collision Risk Probability Collision Risk Index (CRI) Action
CDM_260906-220605-761206-077421
2026-09-06T
22:06:22+0000
2.580 km
极远距离
1.578389E-6 低风险 0.39
CDM_260904-192903-187705-761222
2026-09-04T
19:29:57+0000
2.680 km
极远距离
1.506132E-6 低风险 0.39
CDM_260828-194805-504705-761221
2026-08-28T
19:48:01+0000
2.712 km
极远距离
1.389434E-6 低风险 0.38
CDM_260829-135305-761206-764121
2026-08-29T
13:53:54+0000
2.072 km
极远距离
1.367329E-6 低风险 0.38
CDM_260829-121905-761206-764121
2026-08-29T
12:19:45+0000
2.597 km
极远距离
8.930673E-7 极低风险 0.34